This is the latest recevied weather packets stored in our database for station/object K4GSL. If no packets are shown the sender has not sent any weather packets the latest 10 day(s).
| Time | Temp. | Humidity | Pressure | Rain* | Wind** | Luminosity | Snow |
|---|---|---|---|---|---|---|---|
| 1778042058 | 12.22° C | 95% | 1020.6 hPa | 0 mm | - | 0 W/m² | - |
| 1778041755 | 12.22° C | 95% | 1020.8 hPa | 0 mm | - | 0 W/m² | - |
| 1778041455 | 12.22° C | 95% | 1020.8 hPa | 0 mm | - | 0 W/m² | - |
| 1778041152 | 12.78° C | 94% | 1020.4 hPa | 0 mm | - | 0 W/m² | - |
| 1778040849 | 12.78° C | 94% | 1020.4 hPa | 0 mm | - | 0 W/m² | - |
| 1778040547 | 12.78° C | 93% | 1020.4 hPa | 0 mm | - | 0 W/m² | - |
| 1778040244 | 12.78° C | 93% | 1020.3 hPa | 0 mm | - | 0 W/m² | - |
| 1778039940 | 12.78° C | 92% | 1020.2 hPa | 0 mm | - | 0 W/m² | - |
| 1778039638 | 13.33° C | 91% | 1020.3 hPa | 0 mm | - | 0 W/m² | - |
| 1778039334 | 13.33° C | 91% | 1020.2 hPa | 0 mm | - | 0 W/m² | - |
| 1778039032 | 13.89° C | 89% | 1020.2 hPa | 0 mm | - | 0 W/m² | - |
| 1778038729 | 13.89° C | 88% | 1020 hPa | 0 mm | - | 0 W/m² | - |
| 1778038425 | 15.56° C | 84% | 1019.8 hPa | 0 mm | - | 1 W/m² | - |
| 1778038123 | 15.56° C | 84% | 1019.9 hPa | 0 mm | - | 1 W/m² | - |
| 1778037819 | 15.56° C | 84% | 1019.9 hPa | 0 mm | - | 1 W/m² | - |
| 1778037516 | 16.11° C | 82% | 1019.9 hPa | 0 mm | - | 3 W/m² | - |
| 1778037214 | 16.11° C | 82% | 1019.8 hPa | 0 mm | - | 3 W/m² | - |
| 1778036911 | 18.89° C | 72% | 1019.8 hPa | 0 mm | - | 20 W/m² | - |
| 1778036609 | 18.89° C | 72% | 1019.6 hPa | 0 mm | - | 20 W/m² | - |
| 1778036305 | 18.89° C | 72% | 1019.7 hPa | 0 mm | - | 20 W/m² | - |
| 1778036002 | 18.89° C | 72% | 1019.6 hPa | 0 mm | - | 20 W/m² | - |
| 1778035699 | 18.89° C | 72% | 1019.7 hPa | 0 mm | - | 20 W/m² | - |
| 1778035396 | 18.89° C | 72% | 1019.5 hPa | 0 mm | - | 20 W/m² | - |
| 1778035092 | 18.89° C | 72% | 1019.5 hPa | 0 mm | - | 20 W/m² | - |
| 1778034789 | 18.89° C | 72% | 1019.5 hPa | 0 mm | - | 30 W/m² | - |
* Rain latest hour (hover to see other rain measurements)
** Current wind speed in m/s (hover to see current wind gust speed)